Simultaneous Nadir Overpasses (SNOs) Predictions

Prediction of SNOs between AQUA and METOP-B Satellite Orbit:

Table of predicted SNOs for the next 14.0 days since TLE Epoch: 1/14/2023
Index Date (AQUA) Time (AQUA) Lat,Lon (AQUA) SZA (AQUA ) Date (METOP-B) Time (METOP-B) Lat,Lon (METOP-B) SZA (METOP-B ) Distance(km) Time Diff (sec)
1 01/15/2023 10:25:01 74.15, 19.08 95.30 01/15/2023 10:24:16 74.17, 18.99 95.33 3.49 45
2 01/15/2023 11:14:28 -74.27,-173.54 84.59 01/15/2023 11:14:56 -74.25,-173.48 84.61 2.45 28
3 01/18/2023 05:08:31 -74.19, -81.86 85.19 01/18/2023 05:07:57 -74.19, -81.87 85.18 0.14 34
4 01/18/2023 05:57:59 74.28, 85.57 94.90 01/18/2023 05:58:35 74.29, 85.70 94.90 3.74 36
5 01/20/2023 23:52:01 74.23, 177.19 94.28 01/20/2023 23:51:36 74.21, 177.27 94.27 3.12 25
6 01/21/2023 00:41:27 -74.29, -15.30 85.67 01/21/2023 00:42:16 -74.30, -15.18 85.67 3.78 49
7 01/23/2023 17:45:53 73.80, -90.28 93.19 01/23/2023 17:44:44 73.74, -92.14 93.21 58.15 69
8 01/23/2023 18:35:26 -74.22, 76.40 86.37 01/23/2023 18:35:16 -74.23, 76.38 86.36 0.98 10
9 01/23/2023 19:24:54 74.31,-116.18 93.73 01/23/2023 19:25:54 74.31,-116.08 93.71 3.02 60
10 01/26/2023 12:29:25 -74.16, 168.05 87.09 01/26/2023 12:28:16 -74.18, 168.03 87.06 2.37 69
11 01/26/2023 13:18:53 74.26, -24.53 93.00 01/26/2023 13:18:54 74.26, -24.44 93.01 2.88 1



Historial Predications of SNOs between AQUA and METOP-B
